ARIANE 1 DEB

Satellite information

Favourite Embed

Satellite Type and Status

DEBRISIN ORBIT

Key statistics

Satellite ARIANE 1 DEB at a glance.

Uptime

14490

Days in orbit

Revolutions

≈ 14.2

Per day

Orbit

SSO

Sun Synchronous Orbit

Inclination

98.4

Latest

Satellite identification and parameters

Extended collection of information and parameters for ARIANE 1 DEB.

Object identification

Identified? True

Debris? True

Object name: ARIANE 1 DEB

International designator: 1986-019VU

Object number (NORAD): 39106

Object ID (CCSDS): 39106

Country: FRANCE (FR)

Current information (Y/N): Y

RCS size: SMALL

Orbital parameters

Period: 101.425 minutes

Inclination: 98.4032 deg

SMA: 7204.257 km

Apoapsis: 872.426 km

Periapsis: 779.817 km

RAAN: 319.7076 deg

Eccentricy: 0.00642732

Argument of periapsis: 13.4273 deg

Mean anomaly: 346.8596 deg

Mean motion: 14.19773321 rev/day

Mean motion (dot): 0.00000361 rev/day2

B* drag term: 0.00018584063 1/REarth

Two-line elements (TLE)

Creation date: Oct. 25, 2025, 3:11 a.m.

Reference frame: TEME

Reference center: EARTH

Epoch: Oct. 24, 2025, 6:39 p.m. UTC

TLE line 0: 0 ARIANE 1 DEB

TLE line 1: 1 39106U 86019VU 25297.77765133 .00000361 00000-0 18584-3 0 9996

TLE line 2: 2 39106 98.4032 319.7076 0064273 13.4273 346.8596 14.19773321638345

Live tracking on map

Real-time ground track for satellite ARIANE 1 DEB.

In-orbit conjunctions

A list of the most updated potential collisions computed for object ARIANE 1 DEB.

Target Orbit TCA Probability of collision Miss distance Type
CZ-6A DEB LEO 2025-06-28 01:52:47 0.0001884772 299.0 (m) DEBRIS
ORSTED SSO 2025-06-06 23:17:04 0.0003170011 935.0 (m) PAYLOAD
OSCAR 17 (DOVE) SSO 2025-01-30 09:36:23 0.0002083496 115.0 (m) PAYLOAD

Associated space launch

SPOT 1 is a French Earth observation satellite. Viking is Sweden's first satellite.

ARIANE 1 DEB was lifted into orbit during the mission ‘Ariane 1 | SPOT 1 & Viking’, on board a Ariane 1 space rocket.

The launch took place on Feb. 22, 1986, 1:44 a.m. from Ariane Launch Area 1 (ELV).

For more information about the launch, click the button.

Launch to space Ariane 1 | SPOT 1 & Viking
Ariane 1 | SPOT 1 & Viking

Agency: N/A

Status: Launch Successful

Launch date: Feb. 22, 1986, 1:44 a.m. UTC

Rocket: Ariane 1

Launch pad: Ariane Launch Area 1 (ELV)

Location: Guiana Space Centre, French Guiana

...

Latest news about this satellite

There are no fresh news available about this satellite. Check back as we update our databases every day.


Newsletter sign-up

Weekly statistics, charts and insights to help you stay on top of the space industry.